| time (UTC) | temp C | wind direction | speed KPH | gust KPH | rain 1hr cm | rain 24hr cm | rain mn cm | humidity % | barometer mb |
| 20260503071547 | 11 | 311 | 6.4 | 19.3 | 0.00 | 0.00 | 0.00 | 64 | 1009.9 |
| 20260503071039 | 11 | 338 | 9.7 | 19.3 | 0.00 | 0.00 | 0.00 | 65 | 1009.8 |
| 20260503070539 | 11 | 338 | 6.4 | 16.1 | 0.00 | 0.00 | 0.00 | 65 | 1009.8 |
| 20260503055035 | 12 | 9 | 3.2 | 12.9 | 0.00 | 0.00 | 0.00 | 58 | 1009.7 |
| 20260503054540 | 12 | 336 | 1.6 | 8.0 | 0.00 | 0.00 | 0.00 | 59 | 1009.7 |
| 20260503054035 | 12 | 327 | 3.2 | 8.0 | 0.00 | 0.00 | 0.00 | 57 | 1009.7 |
| 20260503053535 | 13 | 336 | 1.6 | 11.3 | 0.00 | 0.00 | 0.00 | 55 | 1009.8 |
| 20260503053035 | 13 | 319 | 1.6 | 11.3 | 0.00 | 0.00 | 0.00 | 52 | 1009.9 |
| 20260503052537 | 13 | 300 | 0.0 | 6.4 | 0.00 | 0.00 | 0.00 | 52 | 1009.9 |
| 20260503052034 | 13 | 220 | 1.6 | 8.0 | 0.00 | 0.00 | 0.00 | 50 | 1009.9 |
| 20260503051534 | 14 | 130 | 1.6 | 16.1 | 0.00 | 0.00 | 0.00 | 49 | 1009.9 |
| 20260503051036 | 14 | 212 | 9.7 | 19.3 | 0.00 | 0.00 | 0.00 | 48 | 1009.8 |
| 20260503050534 | 13 | 232 | 8.0 | 19.3 | 0.00 | 0.00 | 0.00 | 48 | 1009.7 |
| 20260503050034 | 13 | 240 | 8.0 | 17.7 | 0.00 | 0.00 | 0.00 | 49 | 1009.7 |
| 20260503045535 | 13 | 244 | 11.3 | 17.7 | 0.00 | 0.00 | 0.00 | 50 | 1009.7 |
| 20260503045033 | 13 | 257 | 3.2 | 12.9 | 0.00 | 0.00 | 0.00 | 53 | 1009.6 |
| 20260503044535 | 13 | 235 | 6.4 | 12.9 | 0.00 | 0.00 | 0.00 | 53 | 1009.4 |
| 20260503044033 | 12 | 288 | 6.4 | 17.7 | 0.00 | 0.00 | 0.00 | 55 | 1009.2 |
| 20260503043533 | 12 | 301 | 1.6 | 17.7 | 0.00 | 0.00 | 0.00 | 59 | 1009.1 |
| 20260503043033 | 12 | 19 | 6.4 | 12.9 | 0.00 | 0.00 | 0.00 | 59 | 1008.9 |
| 20260503042532 | 12 | 311 | 8.0 | 19.3 | 0.00 | 0.00 | 0.00 | 59 | 1008.6 |
| 20260503042032 | 13 | 327 | 8.0 | 19.3 | 0.00 | 0.00 | 0.00 | 58 | 1008.5 |
| 20260503041531 | 13 | 313 | 11.3 | 19.3 | 0.00 | 0.00 | 0.00 | 56 | 1008.5 |
| 20260503041032 | 13 | 300 | 9.7 | 19.3 | 0.00 | 0.00 | 0.00 | 54 | 1008.3 |
| 20260503040533 | 13 | 310 | 8.0 | 17.7 | 0.00 | 0.00 | 0.00 | 52 | 1008.1 |
| 20260503040030 | 13 | 304 | 8.0 | 17.7 | 0.00 | 0.00 | 0.00 | 52 | 1008.1 |
| 20260503035531 | 13 | 317 | 8.0 | 19.3 | 0.00 | 0.00 | 0.00 | 52 | 1008.0 |
| 20260503035031 | 13 | 297 | 11.3 | 20.9 | 0.00 | 0.00 | 0.00 | 51 | 1007.8 |
| 20260503034530 | 14 | 311 | 12.9 | 20.9 | 0.00 | 0.00 | 0.00 | 50 | 1007.9 |
| 20260503034030 | 14 | 311 | 8.0 | 17.7 | 0.00 | 0.00 | 0.00 | 50 | 1007.9 |
| 20260503033530 | 15 | 304 | 6.4 | 14.5 | 0.00 | 0.00 | 0.00 | 47 | 1007.9 |
| 20260503033041 | 15 | 310 | 3.2 | 19.3 | 0.00 | 0.00 | 0.00 | 47 | 1007.9 |
| 20260503032529 | 15 | 313 | 8.0 | 25.7 | 0.00 | 0.00 | 0.00 | 47 | 1007.8 |
| 20260503032029 | 15 | 315 | 16.1 | 25.7 | 0.00 | 0.00 | 0.00 | 45 | 1007.8 |
| 20260503031529 | 15 | 308 | 6.4 | 20.9 | 0.00 | 0.00 | 0.00 | 44 | 1007.7 |
| 20260503031030 | 16 | 331 | 9.7 | 22.5 | 0.00 | 0.00 | 0.00 | 42 | 1007.7 |
| 20260503030529 | 16 | 281 | 9.7 | 17.7 | 0.00 | 0.00 | 0.00 | 40 | 1007.5 |
| 20260503030029 | 17 | 280 | 3.2 | 12.9 | 0.00 | 0.00 | 0.00 | 37 | 1007.6 |
| 20260503025528 | 17 | 265 | 6.4 | 30.6 | 0.00 | 0.00 | 0.00 | 36 | 1007.7 |
| 20260503025028 | 17 | 275 | 17.7 | 30.6 | 0.00 | 0.00 | 0.00 | 34 | 1007.5 |
| 20260503024528 | 17 | 301 | 16.1 | 22.5 | 0.00 | 0.00 | 0.00 | 34 | 1007.3 |
| 20260503024029 | 17 | 251 | 3.2 | 22.5 | 0.00 | 0.00 | 0.00 | 36 | 1006.9 |
| 20260503023528 | 17 | 241 | 4.8 | 22.5 | 0.00 | 0.00 | 0.00 | 37 | 1007.0 |
| 20260503023028 | 17 | 245 | 16.1 | 22.5 | 0.00 | 0.00 | 0.00 | 36 | 1006.8 |
| 20260503022527 | 17 | 267 | 9.7 | 22.5 | 0.00 | 0.00 | 0.00 | 38 | 1006.7 |
| 20260503022027 | 17 | 245 | 11.3 | 22.5 | 0.00 | 0.00 | 0.00 | 41 | 1006.7 |
| 20260503021529 | 17 | 234 | 12.9 | 19.3 | 0.00 | 0.00 | 0.00 | 41 | 1006.7 |
| 20260503021027 | 17 | 251 | 12.9 | 20.9 | 0.00 | 0.00 | 0.00 | 39 | 1006.5 |
| 20260503020527 | 17 | 265 | 14.5 | 20.9 | 0.00 | 0.00 | 0.00 | 41 | 1006.5 |
| 20260503020027 | 18 | 226 | 11.3 | 25.7 | 0.00 | 0.00 | 0.00 | 40 | 1006.4 |
| 20260503015527 | 18 | 226 | 6.4 | 11.3 | 0.00 | 0.00 | 0.00 | 37 | 1006.4 |
| 20260503015029 | 18 | 244 | 6.4 | 12.9 | 0.00 | 0.00 | 0.00 | 36 | 1006.3 |
| 20260503014541 | 18 | 255 | 6.4 | 16.1 | 0.00 | 0.00 | 0.00 | 35 | 1006.4 |
| 20260503014027 | 18 | 245 | 6.4 | 16.1 | 0.00 | 0.00 | 0.00 | 34 | 1006.4 |
| 20260503013527 | 18 | 242 | 9.7 | 19.3 | 0.00 | 0.00 | 0.00 | 33 | 1006.4 |
| 20260503013033 | 18 | 246 | 9.7 | 19.3 | 0.00 | 0.00 | 0.00 | 33 | 1006.4 |
| 20260503012526 | 18 | 238 | 12.9 | 17.7 | 0.00 | 0.00 | 0.00 | 32 | 1006.5 |
| 20260503012025 | 18 | 252 | 11.3 | 17.7 | 0.00 | 0.00 | 0.00 | 32 | 1006.5 |
| 20260503011525 | 18 | 254 | 11.3 | 16.1 | 0.00 | 0.00 | 0.00 | 34 | 1006.5 |
| 20260503011025 | 19 | 252 | 9.7 | 14.5 | 0.00 | 0.00 | 0.00 | 33 | 1006.5 |
| 20260503010525 | 19 | 230 | 4.8 | 8.0 | 0.00 | 0.00 | 0.00 | 32 | 1006.6 |
| 20260503010025 | 19 | 247 | 3.2 | 6.4 | 0.00 | 0.00 | 0.00 | 31 | 1006.6 |
| 20260503005525 | 20 | 235 | 1.6 | 4.8 | 0.00 | 0.00 | 0.00 | 31 | 1006.4 |
| 20260503005025 | 20 | 215 | 1.6 | 11.3 | 0.00 | 0.00 | 0.00 | 30 | 1006.5 |
| 20260503004529 | 20 | 224 | 4.8 | 11.3 | 0.00 | 0.00 | 0.00 | 28 | 1006.4 |
| 20260503004025 | 20 | 235 | 8.0 | 12.9 | 0.00 | 0.00 | 0.00 | 28 | 1006.3 |
| 20260503003528 | 20 | 245 | 8.0 | 12.9 | 0.00 | 0.00 | 0.00 | 30 | 1006.3 |
| 20260503003024 | 20 | 227 | 1.6 | 9.7 | 0.00 | 0.00 | 0.00 | 31 | 1006.2 |
| 20260503002522 | 20 | 236 | 4.8 | 9.7 | 0.00 | 0.00 | 0.00 | 31 | 1006.3 |
| 20260503002022 | 20 | 253 | 6.4 | 16.1 | 0.00 | 0.00 | 0.00 | 31 | 1006.3 |
| 20260503001525 | 20 | 232 | 8.0 | 16.1 | 0.00 | 0.00 | 0.00 | 29 | 1006.4 |
| 20260503001024 | 20 | 230 | 8.0 | 14.5 | 0.00 | 0.00 | 0.00 | 29 | 1006.4 |
| 20260503000526 | 20 | 222 | 9.7 | 17.7 | 0.00 | 0.00 | 0.00 | 28 | 1006.4 |
| 20260503000023 | 20 | 215 | 11.3 | 19.3 | 0.00 | 0.00 | 0.00 | 26 | 1006.4 |
| 20260502235521 | 20 | 243 | 12.9 | 19.3 | 0.00 | 0.00 | 0.00 | 27 | 1006.4 |
| 20260502235022 | 20 | 261 | 9.7 | 17.7 | 0.00 | 0.00 | 0.00 | 29 | 1006.4 |
| 20260502234521 | 20 | 225 | 11.3 | 17.7 | 0.00 | 0.00 | 0.00 | 28 | 1006.4 |
| 20260502234022 | 20 | 213 | 11.3 | 17.7 | 0.00 | 0.00 | 0.00 | 28 | 1006.5 |
| 20260502233521 | 21 | 239 | 9.7 | 17.7 | 0.00 | 0.00 | 0.00 | 29 | 1006.5 |
| 20260502233020 | 20 | 209 | 8.0 | 14.5 | 0.00 | 0.00 | 0.00 | 26 | 1006.5 |
| 20260502232519 | 20 | 219 | 6.4 | 16.1 | 0.00 | 0.00 | 0.00 | 28 | 1006.6 |
| 20260502232018 | 20 | 233 | 6.4 | 16.1 | 0.00 | 0.00 | 0.00 | 27 | 1006.6 |
| 20260502231518 | 20 | 217 | 6.4 | 11.3 | 0.00 | 0.00 | 0.00 | 29 | 1006.8 |
| 20260502231018 | 20 | 221 | 3.2 | 12.9 | 0.00 | 0.00 | 0.00 | 28 | 1006.8 |
| 20260502230517 | 20 | 221 | 6.4 | 12.9 | 0.00 | 0.00 | 0.00 | 28 | 1006.9 |
| 20260502230017 | 20 | 224 | 8.0 | 17.7 | 0.00 | 0.00 | 0.00 | 28 | 1007.0 |
| 20260502225517 | 20 | 219 | 11.3 | 17.7 | 0.00 | 0.00 | 0.00 | 26 | 1007.0 |
| 20260502225016 | 21 | 207 | 9.7 | 14.5 | 0.00 | 0.00 | 0.00 | 27 | 1007.0 |
| 20260502224515 | 21 | 133 | 4.8 | 14.5 | 0.00 | 0.00 | 0.00 | 27 | 1007.1 |
| 20260502224014 | 21 | 225 | 1.6 | 9.7 | 0.00 | 0.00 | 0.00 | 31 | 1007.2 |
| 20260502223513 | 20 | 221 | 3.2 | 11.3 | 0.00 | 0.00 | 0.00 | 30 | 1007.3 |
| 20260502223012 | 19 | 208 | 4.8 | 11.3 | 0.00 | 0.00 | 0.00 | 30 | 1007.5 |
| 20260502222511 | 20 | 225 | 6.4 | 11.3 | 0.00 | 0.00 | 0.00 | 30 | 1007.6 |
| 20260502222011 | 20 | 232 | 3.2 | 9.7 | 0.00 | 0.00 | 0.00 | 30 | 1007.7 |
| 20260502221510 | 20 | 233 | 3.2 | 9.7 | 0.00 | 0.00 | 0.00 | 31 | 1007.6 |
| 20260502221010 | 20 | 167 | 3.2 | 11.3 | 0.00 | 0.00 | 0.00 | 29 | 1007.6 |
| 20260502220509 | 20 | 222 | 6.4 | 11.3 | 0.00 | 0.00 | 0.00 | 30 | 1007.6 |
| 20260502220008 | 21 | 217 | 3.2 | 9.7 | 0.00 | 0.00 | 0.00 | 29 | 1007.7 |
| 20260502215512 | 21 | 148 | 1.6 | 9.7 | 0.00 | 0.00 | 0.00 | 28 | 1007.7 |
| 20260502215007 | 20 | 237 | 1.6 | 9.7 | 0.00 | 0.00 | 0.00 | 29 | 1007.8 |
| 20260502214511 | 20 | 157 | 4.8 | 11.3 | 0.00 | 0.00 | 0.00 | 28 | 1007.9 |
| 20260502214005 | 20 | 213 | 6.4 | 11.3 | 0.00 | 0.00 | 0.00 | 29 | 1008.0 |
| 20260502213504 | 20 | 146 | 4.8 | 11.3 | 0.00 | 0.00 | 0.00 | 28 | 1008.1 |
| 20260502213003 | 20 | 224 | 3.2 | 11.3 | 0.00 | 0.00 | 0.00 | 30 | 1008.2 |
| 20260502212502 | 20 | 155 | 1.6 | 9.7 | 0.00 | 0.00 | 0.00 | 30 | 1008.1 |
| 20260502212002 | 20 | 222 | 1.6 | 8.0 | 0.00 | 0.00 | 0.00 | 30 | 1008.2 |
| 20260502211502 | 20 | 215 | 3.2 | 9.7 | 0.00 | 0.00 | 0.00 | 28 | 1008.3 |
| 20260502211001 | 20 | 163 | 0.0 | 11.3 | 0.00 | 0.00 | 0.00 | 27 | 1008.2 |
| 20260502210559 | 20 | 226 | 1.6 | 11.3 | 0.00 | 0.00 | 0.00 | 28 | 1008.3 |
| 20260502210110 | 19 | 214 | 4.8 | 11.3 | 0.00 | 0.00 | 0.00 | 27 | 1008.4 |
| 20260502205559 | 19 | 229 | 6.4 | 12.9 | 0.00 | 0.00 | 0.00 | 27 | 1008.5 |
| 20260502205059 | 18 | 223 | 8.0 | 12.9 | 0.00 | 0.00 | 0.00 | 28 | 1008.5 |
| 20260502204559 | 18 | 228 | 8.0 | 14.5 | 0.00 | 0.00 | 0.00 | 27 | 1008.5 |
| 20260502204059 | 18 | 217 | 6.4 | 17.7 | 0.00 | 0.00 | 0.00 | 27 | 1008.5 |
| 20260502203559 | 18 | 226 | 9.7 | 17.7 | 0.00 | 0.00 | 0.00 | 26 | 1008.5 |
| 20260502203104 | 18 | 249 | 11.3 | 17.7 | 0.00 | 0.00 | 0.00 | 28 | 1008.6 |
| 20260502202558 | 18 | 242 | 4.8 | 20.9 | 0.00 | 0.00 | 0.00 | 30 | 1008.5 |
| 20260502202059 | 18 | 229 | 11.3 | 20.9 | 0.00 | 0.00 | 0.00 | 27 | 1008.6 |
| 20260502201605 | 18 | 180 | 9.7 | 19.3 | 0.00 | 0.00 | 0.00 | 25 | 1008.6 |
| 20260502201058 | 19 | 205 | 9.7 | 14.5 | 0.00 | 0.00 | 0.00 | 24 | 1008.5 |
| 20260502200558 | 20 | 163 | 6.4 | 12.9 | 0.00 | 0.00 | 0.00 | 25 | 1008.4 |
| 20260502200057 | 20 | 212 | 6.4 | 14.5 | 0.00 | 0.00 | 0.00 | 27 | 1008.5 |
| 20260502195556 | 19 | 227 | 6.4 | 14.5 | 0.00 | 0.00 | 0.00 | 26 | 1008.6 |
| 20260502195054 | 19 | 222 | 1.6 | 11.3 | 0.00 | 0.00 | 0.00 | 27 | 1008.5 |
| 20260502194603 | 18 | 192 | 4.8 | 12.9 | 0.00 | 0.00 | 0.00 | 26 | 1008.5 |
| 20260502194054 | 18 | 236 | 4.8 | 14.5 | 0.00 | 0.00 | 0.00 | 26 | 1008.6 |
| 20260502193557 | 18 | 249 | 6.4 | 14.5 | 0.00 | 0.00 | 0.00 | 27 | 1008.7 |
| 20260502193054 | 18 | 217 | 8.0 | 14.5 | 0.00 | 0.00 | 0.00 | 26 | 1008.7 |
| 20260502192553 | 17 | 240 | 4.8 | 9.7 | 0.00 | 0.00 | 0.00 | 27 | 1008.8 |
| 20260502192052 | 17 | 223 | 6.4 | 12.9 | 0.00 | 0.00 | 0.00 | 25 | 1008.9 |
| 20260502191555 | 17 | 224 | 6.4 | 12.9 | 0.00 | 0.00 | 0.00 | 25 | 1008.8 |
| 20260502191052 | 18 | 215 | 4.8 | 11.3 | 0.00 | 0.00 | 0.00 | 25 | 1008.8 |
| 20260502190553 | 18 | 240 | 4.8 | 11.3 | 0.00 | 0.00 | 0.00 | 23 | 1008.8 |
| 20260502190053 | 18 | 224 | 4.8 | 12.9 | 0.00 | 0.00 | 0.00 | 25 | 1008.8 |
| 20260502185554 | 18 | 219 | 6.4 | 12.9 | 0.00 | 0.00 | 0.00 | 23 | 1008.8 |
| 20260502185052 | 18 | 218 | 1.6 | 9.7 | 0.00 | 0.00 | 0.00 | 22 | 1008.9 |
| 20260502184557 | 18 | 230 | 4.8 | 11.3 | 0.00 | 0.00 | 0.00 | 22 | 1008.9 |
| 20260502184052 | 18 | 207 | 6.4 | 12.9 | 0.00 | 0.00 | 0.00 | 21 | 1008.9 |
| 20260502183552 | 18 | 263 | 6.4 | 12.9 | 0.00 | 0.00 | 0.00 | 22 | 1008.9 |
| 20260502183104 | 18 | 290 | 1.6 | 9.7 | 0.00 | 0.00 | 0.00 | 22 | 1008.9 |
| 20260502182554 | 18 | 279 | 3.2 | 9.7 | 0.00 | 0.00 | 0.00 | 23 | 1008.9 |
| 20260502182050 | 18 | 228 | 1.6 | 9.7 | 0.00 | 0.00 | 0.00 | 21 | 1008.9 |
| 20260502181549 | 18 | 252 | 3.2 | 9.7 | 0.00 | 0.00 | 0.00 | 23 | 1008.9 |
| 20260502181049 | 18 | 142 | 3.2 | 8.0 | 0.00 | 0.00 | 0.00 | 22 | 1008.9 |
| 20260502180548 | 18 | 73 | 3.2 | 8.0 | 0.00 | 0.00 | 0.00 | 23 | 1008.8 |
| 20260502164033 | 14 | 19 | 0.0 | 3.2 | 0.00 | 0.00 | 0.00 | 51 | 1008.8 |
| 20260502163536 | 13 | 19 | 0.0 | 1.6 | 0.00 | 0.00 | 0.00 | 52 | 1008.8 |
| 20260502163041 | 13 | 19 | 0.0 | 1.6 | 0.00 | 0.00 | 0.00 | 51 | 1008.8 |
| 20260502162533 | 13 | 19 | 0.0 | 3.2 | 0.00 | 0.00 | 0.00 | 53 | 1008.7 |
| 20260502162034 | 13 | 19 | 0.0 | 6.4 | 0.00 | 0.00 | 0.00 | 51 | 1008.8 |
| 20260502161531 | 14 | 19 | 0.0 | 4.8 | 0.00 | 0.00 | 0.00 | 39 | 1008.8 |
| 20260502161031 | 14 | 19 | 0.0 | 1.6 | 0.00 | 0.00 | 0.00 | 29 | 1008.7 |
| 20260502160531 | 14 | 19 | 0.0 | 1.6 | 0.00 | 0.00 | 0.00 | 29 | 1008.7 |
| 20260502152019 | 11 | 28 | 6.4 | 11.3 | 0.00 | 0.00 | 0.00 | 49 | 1008.6 |
| 20260502151520 | 11 | 346 | 0.0 | 3.2 | 0.00 | 0.00 | 0.00 | 48 | 1008.6 |
| 20260502151018 | 11 | 288 | 0.0 | 3.2 | 0.00 | 0.00 | 0.00 | 49 | 1008.6 |
| 20260502150517 | 10 | 322 | 0.0 | 9.7 | 0.00 | 0.00 | 0.00 | 50 | 1008.6 |
| 20260502130552 | 7 | 288 | 6.4 | 12.9 | 0.00 | 0.00 | 0.00 | 49 | 1008.4 |
| 20260502123554 | 7 | 240 | 1.6 | 11.3 | 0.00 | 0.00 | 0.00 | 50 | 1008.4 |
| 20260502123051 | 7 | 325 | 0.0 | 9.7 | 0.00 | 0.00 | 0.00 | 50 | 1008.4 |
| 20260502122553 | 7 | 333 | 0.0 | 12.9 | 0.00 | 0.00 | 0.00 | 50 | 1008.4 |
| 20260502122055 | 7 | 342 | 3.2 | 14.5 | 0.00 | 0.00 | 0.00 | 50 | 1008.4 |
| 20260502121550 | 7 | 77 | 0.0 | 14.5 | 0.00 | 0.00 | 0.00 | 50 | 1008.4 |
| 20260502121049 | 7 | 341 | 4.8 | 14.5 | 0.00 | 0.00 | 0.00 | 50 | 1008.4 |
| 20260502120549 | 7 | 322 | 8.0 | 16.1 | 0.00 | 0.00 | 0.00 | 50 | 1008.4 |
| 20260502115548 | 7 | 37 | 3.2 | 14.5 | 0.00 | 0.00 | 0.00 | 50 | 1008.5 |
| 20260502115048 | 8 | 30 | 11.3 | 19.3 | 0.00 | 0.00 | 0.00 | 51 | 1008.5 |
| 20260502114603 | 7 | 42 | 11.3 | 22.5 | 0.00 | 0.00 | 0.00 | 51 | 1008.5 |
| 20260502114046 | 7 | 342 | 12.9 | 22.5 | 0.00 | 0.00 | 0.00 | 49 | 1008.5 |
| 20260502113548 | 7 | 314 | 9.7 | 19.3 | 0.00 | 0.00 | 0.00 | 50 | 1008.5 |
| 20260502113048 | 7 | 27 | 11.3 | 19.3 | 0.00 | 0.00 | 0.00 | 51 | 1008.5 |
| 20260502112542 | 8 | 17 | 9.7 | 20.9 | 0.00 | 0.00 | 0.00 | 50 | 1008.6 |
| 20260502112042 | 8 | 20 | 9.7 | 20.9 | 0.00 | 0.00 | 0.00 | 50 | 1008.5 |
| 20260502111547 | 8 | 14 | 9.7 | 20.9 | 0.00 | 0.00 | 0.00 | 51 | 1008.5 |
| 20260502111041 | 8 | 336 | 11.3 | 20.9 | 0.00 | 0.00 | 0.00 | 51 | 1008.5 |
| 20260502110541 | 8 | 12 | 9.7 | 19.3 | 0.00 | 0.00 | 0.00 | 52 | 1008.5 |
| 20260502110040 | 8 | 17 | 9.7 | 19.3 | 0.00 | 0.00 | 0.00 | 52 | 1008.5 |
| 20260502105543 | 8 | 52 | 9.7 | 19.3 | 0.00 | 0.00 | 0.00 | 52 | 1008.6 |
| 20260502105037 | 8 | 360 | 11.3 | 19.3 | 0.00 | 0.00 | 0.00 | 53 | 1008.6 |
| 20260502104547 | 8 | 15 | 8.0 | 20.9 | 0.00 | 0.00 | 0.00 | 51 | 1008.6 |
| 20260502104038 | 8 | 19 | 8.0 | 20.9 | 0.00 | 0.00 | 0.00 | 52 | 1008.5 |
| 20260502103536 | 8 | 336 | 9.7 | 16.1 | 0.00 | 0.00 | 0.00 | 52 | 1008.5 |
| 20260502103037 | 8 | 341 | 8.0 | 17.7 | 0.00 | 0.00 | 0.00 | 52 | 1008.6 |
| 20260502102635 | 8 | 344 | 12.9 | 19.3 | 0.00 | 0.00 | 0.00 | 53 | 1008.5 |
| 20260502102034 | 8 | 322 | 11.3 | 19.3 | 0.00 | 0.00 | 0.00 | 53 | 1008.5 |
| 20260502101549 | 8 | 324 | 8.0 | 17.7 | 0.00 | 0.00 | 0.00 | 52 | 1008.6 |
| 20260502101033 | 8 | 338 | 9.7 | 19.3 | 0.00 | 0.00 | 0.00 | 52 | 1008.5 |
| 20260502100534 | 8 | 349 | 11.3 | 20.9 | 0.00 | 0.00 | 0.00 | 53 | 1008.5 |
| 20260502091524 | 9 | 327 | 9.7 | 19.3 | 0.00 | 0.00 | 0.00 | 52 | 1009.0 |
| 20260502091023 | 9 | 331 | 8.0 | 19.3 | 0.00 | 0.00 | 0.00 | 51 | 1009.0 |
| 20260502090522 | 9 | 355 | 11.3 | 19.3 | 0.00 | 0.00 | 0.00 | 52 | 1009.1 |